Regional Weather Roundup
Issued by NWS Nashville, TN

Home | Current Version | Previous Version | Text Only | Print | Product List | Glossary On
Versions: 1 2 3 4 5 6 7 8 9 10 11 12 13 14 15 16 17 18 19 20 21 22 23 24 25 26 27 28 29 30 31 32 33 34 35 36 37 38 39 40 41 42 43 44 45 46 47 48 49 50
000
ASUS44 KOHX 260210
RWROHX
MIDDLE TENNESSEE HOURLY WEATHER ROUNDUP
NATIONAL WEATHER SERVICE NASHVILLE TN
900 PM CDT WED MAY 25 2016

NOTE: "FAIR" INDICATES FEW OR NO CLOUDS BELOW 12,000 FEET WITH
NO SIGNIFICANT WEATHER AND/OR OBSTRUCTIONS TO VISIBILITY.

* THESE REPORTS ARE NOT UNDER NWS QUALITY CONTROL AND MAY NOT
  REPORT WEATHER SUCH AS PRECIPITATION AND FOG.


TNZ005>011-023>034-057-059-062>066-078-080-260300
...NORTHERN MIDDLE TENNESSEE...

CITY           SKY/WX    TMP DP  RH WIND       PRES   REMARKS
CLARKSVILLE    CLOUDY    66  64  93 CALM      30.08S
CROSSVILLE     MOCLDY    72  59  63 VRB3      30.20F
DICKSON        CLOUDY    64  63  94 SW5       30.08F
LEBANON        PTCLDY    66  65  97 CALM      30.11F
NASHVILLE      MOCLDY    67  64  90 E10       30.08F
SMYRNA         CLOUDY    68  68 100 SE7       30.10F
SPARTA         MOCLDY    75  64  69 W6        30.15S
$$
TNZ056-058-060-061-075>077-079-093>097-260300
...SOUTHERN MIDDLE TENNESSEE...

CITY           SKY/WX    TMP DP  RH WIND       PRES   REMARKS
COLUMBIA       CLEAR     72  66  83 SW5       30.07F
FAYETTEVILLE   CLOUDY    73  61  64 CALM      30.16F
LEWISBURG      MOCLDY    73  60  63 S8        30.09F
MCMINNVILLE    MOCLDY    70  66  88 CALM      30.18S
SHELBYVILLE    CLOUDY    77  61  57 S7        30.13F
TULLAHOMA      CLOUDY    72  59  64 SW7       30.18F
WINCHESTER     MOCLDY    77  61  57 W10       30.18F
$$


...KEY TO REMARKS...
VSB - VISIBILITY IN MILES
WCI - WIND CHILL INDEX
HX  - HEAT INDEX




USA.gov is the U.S. government's official web portal to all federal, state and local government web resources and services.